Time,TemperatureF,DewpointF,PressureIn,WindDirection,WindDirectionDegrees,WindSpeedMPH,WindSpeedGustMPH,Humidity,HourlyPrecipIn,Conditions,Clouds,dailyrainin,SoftwareType,DateUTC
2013-09-05 00:01:00,63.9,44.9,29.97,WSW,246,0.0,0.0,50,0.00,,---,0.00,VWS V14.01,2013-09-05 04:01:00,
2013-09-05 00:04:00,63.9,44.9,29.97,WSW,246,0.0,0.0,50,0.00,,---,0.00,VWS V14.01,2013-09-05 04:04:00,
2013-09-05 00:09:00,63.9,44.9,29.94,WSW,246,0.0,0.0,50,0.00,,---,0.00,VWS V14.01,2013-09-05 04:09:00,
2013-09-05 00:14:00,63.9,44.9,29.94,WSW,246,0.0,0.0,50,0.00,,---,0.00,VWS V14.01,2013-09-05 04:14:00,
2013-09-05 00:19:00,63.9,44.9,29.94,WSW,246,0.0,0.0,50,0.00,,---,0.00,VWS V14.01,2013-09-05 04:19:00,
2013-09-05 00:24:00,63.9,44.9,29.94,WSW,246,0.0,0.0,50,0.00,,---,0.00,VWS V14.01,2013-09-05 04:24:00,
2013-09-05 00:29:00,63.7,44.7,29.94,WSW,246,0.0,0.0,50,0.00,,---,0.00,VWS V14.01,2013-09-05 04:29:00,
2013-09-05 00:34:00,63.5,44.5,29.94,WSW,246,0.0,0.0,50,0.00,,---,0.00,VWS V14.01,2013-09-05 04:34:00,
2013-09-05 00:39:00,63.3,44.9,29.94,WSW,246,0.0,0.0,51,0.00,,---,0.00,VWS V14.01,2013-09-05 04:39:00,
2013-09-05 00:45:00,63.1,44.7,29.94,WSW,246,0.0,0.0,51,0.00,,---,0.00,VWS V14.01,2013-09-05 04:45:00,
2013-09-05 00:50:00,63.0,45.1,29.94,WSW,246,0.0,0.0,52,0.00,,---,0.00,VWS V14.01,2013-09-05 04:50:00,
2013-09-05 00:55:00,63.0,45.1,29.94,WSW,246,0.0,0.0,52,0.00,,---,0.00,VWS V14.01,2013-09-05 04:55:00,
2013-09-05 01:00:00,62.6,45.7,29.94,WSW,246,0.0,0.0,54,0.00,,---,0.00,VWS V14.01,2013-09-05 05:00:00,
2013-09-05 01:05:00,62.6,46.2,29.94,WSW,246,0.0,0.0,55,0.00,,---,0.00,VWS V14.01,2013-09-05 05:05:00,
2013-09-05 01:10:00,62.4,46.1,29.94,WSW,246,0.0,0.0,55,0.00,,---,0.00,VWS V14.01,2013-09-05 05:10:00,
2013-09-05 01:15:00,62.4,46.5,29.94,WSW,246,0.0,0.0,56,0.00,,---,0.00,VWS V14.01,2013-09-05 05:15:00,
2013-09-05 01:20:00,62.2,46.4,29.94,WSW,246,0.0,0.0,56,0.00,,---,0.00,VWS V14.01,2013-09-05 05:20:00,
2013-09-05 01:25:00,62.2,46.8,29.94,WSW,246,0.0,0.0,57,0.00,,---,0.00,VWS V14.01,2013-09-05 05:25:00,
2013-09-05 01:30:00,62.1,46.7,29.94,WSW,246,0.0,0.0,57,0.00,,---,0.00,VWS V14.01,2013-09-05 05:30:00,
2013-09-05 01:35:00,61.9,47.4,29.94,WSW,246,0.0,0.0,59,0.00,,---,0.00,VWS V14.01,2013-09-05 05:35:00,
2013-09-05 01:40:00,61.9,47.9,29.94,WSW,246,2.7,3.1,60,0.00,,---,0.00,VWS V14.01,2013-09-05 05:40:00,
2013-09-05 01:45:00,61.7,48.6,29.94,WSW,246,0.0,0.0,62,0.00,,---,0.00,VWS V14.01,2013-09-05 05:45:00,
2013-09-05 01:50:00,61.7,49.0,29.94,WSW,246,0.0,0.0,63,0.00,,---,0.00,VWS V14.01,2013-09-05 05:50:00,
2013-09-05 01:55:00,61.5,49.2,29.94,WSW,246,0.0,0.0,64,0.00,,---,0.00,VWS V14.01,2013-09-05 05:55:00,
2013-09-05 02:00:00,61.3,49.1,29.94,WSW,246,0.0,0.0,64,0.00,,---,0.00,VWS V14.01,2013-09-05 06:00:00,
2013-09-05 02:05:00,61.3,49.1,29.94,WSW,246,0.0,0.0,64,0.00,,---,0.00,VWS V14.01,2013-09-05 06:05:00,
2013-09-05 02:10:00,61.3,49.5,29.94,WSW,246,0.0,0.0,65,0.00,,---,0.00,VWS V14.01,2013-09-05 06:10:00,
2013-09-05 02:15:00,61.2,49.3,29.94,WSW,246,0.0,0.0,65,0.00,,---,0.00,VWS V14.01,2013-09-05 06:15:00,
2013-09-05 02:20:00,61.2,49.3,29.94,WSW,246,0.0,0.0,65,0.00,,---,0.00,VWS V14.01,2013-09-05 06:20:00,
2013-09-05 02:25:00,61.0,49.5,29.94,WSW,246,0.0,0.0,66,0.00,,---,0.00,VWS V14.01,2013-09-05 06:25:00,
2013-09-05 02:30:00,61.0,49.5,29.94,WSW,246,0.0,0.0,66,0.00,,---,0.00,VWS V14.01,2013-09-05 06:30:00,
2013-09-05 02:35:00,60.8,49.4,29.94,WSW,246,0.0,0.0,66,0.00,,---,0.00,VWS V14.01,2013-09-05 06:35:00,
2013-09-05 02:40:00,60.6,49.2,29.94,WSW,246,0.0,0.0,66,0.00,,---,0.00,VWS V14.01,2013-09-05 06:40:00,
2013-09-05 02:45:00,60.6,49.6,29.94,WSW,246,0.0,0.0,67,0.00,,---,0.00,VWS V14.01,2013-09-05 06:45:00,
2013-09-05 02:50:00,60.6,49.6,29.94,WSW,246,0.0,0.0,67,0.00,,---,0.00,VWS V14.01,2013-09-05 06:50:00,
2013-09-05 02:55:00,60.4,49.4,29.94,WSW,246,0.0,0.0,67,0.00,,---,0.00,VWS V14.01,2013-09-05 06:55:00,
2013-09-05 03:00:00,60.4,49.8,29.94,WSW,246,0.0,3.1,68,0.00,,---,0.00,VWS V14.01,2013-09-05 07:00:00,
2013-09-05 03:05:00,60.3,49.7,29.94,WSW,246,0.0,0.0,68,0.00,,---,0.00,VWS V14.01,2013-09-05 07:05:00,
2013-09-05 03:10:00,60.3,50.1,29.94,WSW,246,0.0,0.0,69,0.00,,---,0.00,VWS V14.01,2013-09-05 07:10:00,
2013-09-05 03:15:00,60.3,50.1,29.94,WSW,246,0.0,0.0,69,0.00,,---,0.00,VWS V14.01,2013-09-05 07:15:00,
2013-09-05 03:20:00,60.3,50.1,29.94,WSW,246,0.0,0.0,69,0.00,,---,0.00,VWS V14.01,2013-09-05 07:20:00,
2013-09-05 03:25:00,60.1,49.9,29.91,WSW,246,0.0,0.0,69,0.00,,---,0.00,VWS V14.01,2013-09-05 07:25:00,
2013-09-05 03:30:00,60.1,49.9,29.91,WSW,246,0.0,0.0,69,0.00,,---,0.00,VWS V14.01,2013-09-05 07:30:00,
2013-09-05 03:35:00,59.9,50.1,29.91,WSW,246,0.0,0.0,70,0.00,,---,0.00,VWS V14.01,2013-09-05 07:35:00,
2013-09-05 03:40:00,59.9,50.1,29.91,WSW,246,0.0,0.0,70,0.00,,---,0.00,VWS V14.01,2013-09-05 07:40:00,
2013-09-05 03:45:00,59.9,50.1,29.91,WSW,246,0.0,0.0,70,0.00,,---,0.00,VWS V14.01,2013-09-05 07:45:00,
2013-09-05 03:50:00,59.9,50.1,29.91,WSW,246,0.0,0.0,70,0.00,,---,0.00,VWS V14.01,2013-09-05 07:50:00,
2013-09-05 03:55:00,59.9,50.1,29.91,WSW,246,0.0,0.0,70,0.00,,---,0.00,VWS V14.01,2013-09-05 07:55:00,
2013-09-05 04:00:00,59.7,50.3,29.91,WSW,246,0.0,0.0,71,0.00,,---,0.00,VWS V14.01,2013-09-05 08:00:00,
2013-09-05 04:05:00,59.7,50.3,29.91,WSW,246,0.0,0.0,71,0.00,,---,0.00,VWS V14.01,2013-09-05 08:05:00,
2013-09-05 04:10:00,59.9,50.5,29.91,WSW,246,0.0,0.0,71,0.00,,---,0.00,VWS V14.01,2013-09-05 08:10:00,
2013-09-05 04:15:00,60.1,50.7,29.91,WSW,246,0.0,2.7,71,0.00,,---,0.00,VWS V14.01,2013-09-05 08:15:00,
2013-09-05 04:20:00,60.3,50.8,29.91,WSW,246,0.0,0.0,71,0.00,,---,0.00,VWS V14.01,2013-09-05 08:20:00,
2013-09-05 04:25:00,60.4,51.0,29.91,WSW,246,0.0,0.0,71,0.00,,---,0.00,VWS V14.01,2013-09-05 08:25:00,
2013-09-05 04:30:00,60.1,50.7,29.91,WSW,246,2.7,2.7,71,0.00,,---,0.00,VWS V14.01,2013-09-05 08:30:00,
2013-09-05 04:35:00,59.9,50.5,29.91,WSW,246,0.0,2.7,71,0.00,,---,0.00,VWS V14.01,2013-09-05 08:35:00,
2013-09-05 04:40:00,59.7,50.3,29.91,WSW,246,0.0,0.0,71,0.00,,---,0.00,VWS V14.01,2013-09-05 08:40:00,
2013-09-05 04:45:00,59.7,50.3,29.91,WSW,246,0.0,0.0,71,0.00,,---,0.00,VWS V14.01,2013-09-05 08:45:00,
2013-09-05 04:50:00,59.5,50.1,29.94,WSW,246,0.0,0.0,71,0.00,,---,0.00,VWS V14.01,2013-09-05 08:50:00,
2013-09-05 04:55:00,59.5,50.5,29.94,WSW,246,0.0,2.7,72,0.00,,---,0.00,VWS V14.01,2013-09-05 08:55:00,
2013-09-05 05:00:00,59.5,50.5,29.94,WSW,246,0.0,0.0,72,0.00,,---,0.00,VWS V14.01,2013-09-05 09:00:00,
2013-09-05 05:05:00,59.5,50.5,29.94,WSW,246,0.0,0.0,72,0.00,,---,0.00,VWS V14.01,2013-09-05 09:05:00,
2013-09-05 05:10:00,59.5,50.9,29.94,WSW,246,0.0,0.0,73,0.00,,---,0.00,VWS V14.01,2013-09-05 09:10:00,
2013-09-05 05:15:00,59.7,51.1,29.94,WSW,246,0.0,0.0,73,0.00,,---,0.00,VWS V14.01,2013-09-05 09:15:00,
2013-09-05 05:20:00,59.7,51.1,29.94,WSW,246,0.0,0.0,73,0.00,,---,0.00,VWS V14.01,2013-09-05 09:20:00,
2013-09-05 05:25:00,59.7,51.1,29.94,WSW,246,0.0,0.0,73,0.00,,---,0.00,VWS V14.01,2013-09-05 09:25:00,
2013-09-05 05:30:00,59.9,51.6,29.94,WSW,246,0.0,0.0,74,0.00,,---,0.00,VWS V14.01,2013-09-05 09:30:00,
2013-09-05 05:35:00,59.7,51.4,29.94,WSW,246,0.0,0.0,74,0.00,,---,0.00,VWS V14.01,2013-09-05 09:35:00,
2013-09-05 05:41:00,59.7,51.4,29.94,WSW,246,0.0,0.0,74,0.00,,---,0.00,VWS V14.01,2013-09-05 09:41:00,
2013-09-05 05:46:00,59.7,51.4,29.94,WSW,246,0.0,0.0,74,0.00,,---,0.00,VWS V14.01,2013-09-05 09:46:00,
2013-09-05 05:51:00,59.5,51.3,29.94,WSW,246,0.0,0.0,74,0.00,,---,0.00,VWS V14.01,2013-09-05 09:51:00,
2013-09-05 05:56:00,59.7,51.4,29.94,WSW,246,0.0,0.0,74,0.00,,---,0.00,VWS V14.01,2013-09-05 09:56:00,
2013-09-05 06:01:00,59.7,51.8,29.94,WSW,246,0.0,0.0,75,0.00,,---,0.00,VWS V14.01,2013-09-05 10:01:00,
2013-09-05 06:06:00,59.9,52.0,29.94,WSW,246,0.0,0.0,75,0.00,,---,0.00,VWS V14.01,2013-09-05 10:06:00,
2013-09-05 06:11:00,60.1,51.8,29.94,WSW,246,0.0,0.0,74,0.00,,---,0.00,VWS V14.01,2013-09-05 10:11:00,
2013-09-05 06:16:00,60.1,52.1,29.94,WSW,246,0.0,0.0,75,0.00,,---,0.00,VWS V14.01,2013-09-05 10:16:00,
2013-09-05 06:21:00,60.3,52.3,29.94,WSW,246,0.0,0.0,75,0.00,,---,0.00,VWS V14.01,2013-09-05 10:21:00,
2013-09-05 06:26:00,60.4,52.5,29.94,WSW,246,0.0,0.0,75,0.00,,---,0.00,VWS V14.01,2013-09-05 10:26:00,
2013-09-05 06:31:00,60.4,52.5,29.94,WSW,246,0.0,0.0,75,0.00,,---,0.00,VWS V14.01,2013-09-05 10:31:00,
2013-09-05 06:36:00,60.4,52.5,29.94,WSW,246,0.0,0.0,75,0.00,,---,0.00,VWS V14.01,2013-09-05 10:36:00,
2013-09-05 06:41:00,60.6,52.7,29.94,WSW,246,0.0,0.0,75,0.00,,---,0.00,VWS V14.01,2013-09-05 10:41:00,
2013-09-05 06:46:00,60.8,52.8,29.94,WSW,246,0.0,0.0,75,0.00,,---,0.00,VWS V14.01,2013-09-05 10:46:00,
2013-09-05 06:51:00,60.8,52.8,29.94,WSW,246,0.0,0.0,75,0.00,,---,0.00,VWS V14.01,2013-09-05 10:51:00,
2013-09-05 06:56:00,61.0,53.0,29.94,WSW,246,0.0,0.0,75,0.00,,---,0.00,VWS V14.01,2013-09-05 10:56:00,
2013-09-05 07:01:00,61.0,53.0,29.94,WSW,246,0.0,0.0,75,0.00,,---,0.00,VWS V14.01,2013-09-05 11:01:00,
2013-09-05 07:06:00,61.2,53.2,29.94,WSW,246,0.0,0.0,75,0.00,,---,0.00,VWS V14.01,2013-09-05 11:06:00,
2013-09-05 07:11:00,61.3,53.4,29.94,WSW,246,0.0,0.0,75,0.00,,---,0.00,VWS V14.01,2013-09-05 11:11:00,
2013-09-05 07:16:00,61.7,54.1,29.94,WSW,246,0.0,0.0,76,0.00,,---,0.00,VWS V14.01,2013-09-05 11:16:00,
2013-09-05 07:21:00,61.9,53.9,29.94,WSW,246,0.0,0.0,75,0.00,,---,0.00,VWS V14.01,2013-09-05 11:21:00,
2013-09-05 07:26:00,62.2,54.2,29.94,WSW,246,0.0,0.0,75,0.00,,---,0.00,VWS V14.01,2013-09-05 11:26:00,
2013-09-05 07:31:00,62.2,54.2,29.94,WSW,246,0.0,0.0,75,0.00,,---,0.00,VWS V14.01,2013-09-05 11:31:00,
2013-09-05 07:36:00,62.2,54.2,29.94,WSW,246,0.0,0.0,75,0.00,,---,0.00,VWS V14.01,2013-09-05 11:36:00,
2013-09-05 07:42:00,62.2,54.2,29.94,WSW,246,0.0,0.0,75,0.00,,---,0.00,VWS V14.01,2013-09-05 11:42:00,
2013-09-05 07:47:00,62.4,54.4,29.94,WSW,246,0.0,0.0,75,0.00,,---,0.00,VWS V14.01,2013-09-05 11:47:00,
2013-09-05 07:52:00,62.6,54.6,29.97,WSW,246,0.0,0.0,75,0.00,,---,0.00,VWS V14.01,2013-09-05 11:52:00,
2013-09-05 07:57:00,63.0,54.9,29.97,WSW,246,0.0,0.0,75,0.00,,---,0.00,VWS V14.01,2013-09-05 11:57:00,
2013-09-05 08:02:00,63.1,55.1,29.97,WSW,246,0.0,0.0,75,0.00,,---,0.00,VWS V14.01,2013-09-05 12:02:00,
2013-09-05 08:07:00,63.3,54.9,29.97,WSW,246,0.0,4.0,74,0.00,,---,0.00,VWS V14.01,2013-09-05 12:07:00,
2013-09-05 08:12:00,63.7,54.9,29.97,WSW,246,3.1,4.0,73,0.00,,---,0.00,VWS V14.01,2013-09-05 12:12:00,
2013-09-05 08:17:00,64.2,54.6,29.97,WSW,246,0.0,5.8,71,0.00,,---,0.00,VWS V14.01,2013-09-05 12:17:00,
2013-09-05 08:22:00,64.8,54.4,29.94,WSW,246,3.1,4.5,69,0.00,,---,0.00,VWS V14.01,2013-09-05 12:22:00,
2013-09-05 08:27:00,65.1,53.5,29.94,WSW,246,0.0,5.4,66,0.00,,---,0.00,VWS V14.01,2013-09-05 12:27:00,
2013-09-05 08:32:00,65.5,52.1,29.94,WSW,246,2.7,4.9,62,0.00,,---,0.00,VWS V14.01,2013-09-05 12:32:00,
2013-09-05 08:37:00,65.7,51.0,29.97,SW,225,0.0,6.7,59,0.00,,---,0.00,VWS V14.01,2013-09-05 12:37:00,
2013-09-05 08:42:00,66.0,49.9,29.97,West,270,0.0,3.6,56,0.00,,---,0.00,VWS V14.01,2013-09-05 12:42:00,
2013-09-05 08:47:00,66.2,49.1,29.97,West,270,0.0,0.0,54,0.00,,---,0.00,VWS V14.01,2013-09-05 12:47:00,
2013-09-05 08:52:00,66.2,48.6,29.97,West,271,2.7,4.0,53,0.00,,---,0.00,VWS V14.01,2013-09-05 12:52:00,
2013-09-05 08:57:00,66.4,48.2,29.97,West,271,3.1,4.0,52,0.00,,---,0.00,VWS V14.01,2013-09-05 12:57:00,
2013-09-05 09:02:00,66.4,47.2,29.97,West,263,2.7,5.4,50,0.00,,---,0.00,VWS V14.01,2013-09-05 13:02:00,
2013-09-05 09:07:00,66.4,46.7,29.97,West,263,0.0,3.1,49,0.00,,---,0.00,VWS V14.01,2013-09-05 13:07:00,
2013-09-05 09:12:00,66.4,46.7,29.97,West,264,0.0,0.0,49,0.00,,---,0.00,VWS V14.01,2013-09-05 13:12:00,
2013-09-05 09:17:00,66.7,47.0,29.97,West,266,3.1,4.9,49,0.00,,---,0.00,VWS V14.01,2013-09-05 13:17:00,
2013-09-05 09:22:00,67.3,46.9,29.97,NNE,14,0.0,6.7,48,0.00,,---,0.00,VWS V14.01,2013-09-05 13:22:00,
2013-09-05 09:27:00,67.8,46.3,29.97,NE,43,4.0,4.5,46,0.00,,---,0.00,VWS V14.01,2013-09-05 13:27:00,
2013-09-05 09:32:00,68.4,46.8,29.97,WNW,301,5.4,7.4,46,0.00,,---,0.00,VWS V14.01,2013-09-05 13:32:00,
2013-09-05 09:37:00,68.7,46.0,29.97,WNW,288,0.0,5.4,44,0.00,,---,0.00,VWS V14.01,2013-09-05 13:37:00,
2013-09-05 09:42:00,68.5,44.6,29.97,NE,38,0.0,5.8,42,0.00,,---,0.00,VWS V14.01,2013-09-05 13:42:00,
2013-09-05 09:47:00,68.7,45.3,29.97,North,351,4.5,4.9,43,0.00,,---,0.00,VWS V14.01,2013-09-05 13:47:00,
2013-09-05 09:53:00,68.7,44.7,29.97,NNE,15,2.7,5.8,42,0.00,,---,0.00,VWS V14.01,2013-09-05 13:53:00,
2013-09-05 09:58:00,68.5,44.6,29.97,NNE,24,4.0,5.8,42,0.00,,---,0.00,VWS V14.01,2013-09-05 13:58:00,
2013-09-05 10:03:00,68.4,43.8,29.97,NE,39,0.0,5.4,41,0.00,,---,0.00,VWS V14.01,2013-09-05 14:03:00,
2013-09-05 10:08:00,68.0,42.8,29.97,NE,54,2.7,4.5,40,0.00,,---,0.00,VWS V14.01,2013-09-05 14:08:00,
2013-09-05 10:13:00,68.0,41.5,29.97,ENE,72,2.7,5.4,38,0.00,,---,0.00,VWS V14.01,2013-09-05 14:13:00,
2013-09-05 10:18:00,68.2,41.6,29.97,NE,51,0.0,4.9,38,0.00,,---,0.00,VWS V14.01,2013-09-05 14:18:00,
2013-09-05 10:23:00,67.8,39.2,30.00,NNE,19,0.0,5.8,35,0.00,,---,0.00,VWS V14.01,2013-09-05 14:23:00,
2013-09-05 10:28:00,67.8,38.5,30.00,North,356,0.0,9.6,34,0.00,,---,0.00,VWS V14.01,2013-09-05 14:28:00,
2013-09-05 10:33:00,67.8,36.9,30.00,North,356,4.0,7.4,32,0.00,,---,0.00,VWS V14.01,2013-09-05 14:33:00,
2013-09-05 10:38:00,68.0,34.6,30.00,West,281,6.3,6.9,29,0.00,,---,0.00,VWS V14.01,2013-09-05 14:38:00,
2013-09-05 10:43:00,68.2,34.7,30.00,North,356,0.0,4.5,29,0.00,,---,0.00,VWS V14.01,2013-09-05 14:43:00,
2013-09-05 10:48:00,68.2,33.9,30.00,NNW,335,5.4,7.8,28,0.00,,---,0.00,VWS V14.01,2013-09-05 14:48:00,
2013-09-05 10:53:00,68.4,34.0,30.00,North,356,0.0,4.0,28,0.00,,---,0.00,VWS V14.01,2013-09-05 14:53:00,
2013-09-05 10:58:00,68.5,33.3,30.00,NNW,343,2.7,8.3,27,0.00,,---,0.00,VWS V14.01,2013-09-05 14:58:00,
2013-09-05 11:03:00,68.5,32.3,30.00,SSW,205,0.0,9.2,26,0.00,,---,0.00,VWS V14.01,2013-09-05 15:03:00,
2013-09-05 11:08:00,68.7,32.5,30.00,SSW,205,2.7,3.6,26,0.00,,---,0.00,VWS V14.01,2013-09-05 15:08:00,
2013-09-05 11:13:00,68.9,31.7,30.00,NNE,20,3.1,7.4,25,0.00,,---,0.00,VWS V14.01,2013-09-05 15:13:00,
2013-09-05 11:18:00,69.6,32.3,30.00,West,278,0.0,13.0,25,0.00,,---,0.00,VWS V14.01,2013-09-05 15:18:00,
2013-09-05 11:23:00,69.6,33.2,30.00,West,278,0.0,3.1,26,0.00,,---,0.00,VWS V14.01,2013-09-05 15:23:00,
2013-09-05 11:28:00,69.4,33.1,30.00,WNW,296,0.0,0.0,26,0.00,,---,0.00,VWS V14.01,2013-09-05 15:28:00,
2013-09-05 11:33:00,69.8,33.4,30.00,NNE,31,0.0,5.8,26,0.00,,---,0.00,VWS V14.01,2013-09-05 15:33:00,
2013-09-05 11:38:00,70.5,33.0,30.00,NE,35,3.1,6.9,25,0.00,,---,0.00,VWS V14.01,2013-09-05 15:38:00,
2013-09-05 11:43:00,70.7,31.1,30.00,North,8,4.9,6.9,23,0.00,,---,0.00,VWS V14.01,2013-09-05 15:43:00,
2013-09-05 11:48:00,70.9,31.3,30.00,West,259,6.3,7.4,23,0.00,,---,0.00,VWS V14.01,2013-09-05 15:48:00,
2013-09-05 11:54:00,71.2,30.5,30.00,WNW,290,4.9,8.3,22,0.00,,---,0.00,VWS V14.01,2013-09-05 15:54:00,
2013-09-05 11:59:00,71.4,29.5,30.00,SW,234,6.9,6.9,21,0.00,,---,0.00,VWS V14.01,2013-09-05 15:59:00,
2013-09-05 12:04:00,71.4,29.5,30.00,NNE,23,3.6,8.3,21,0.00,,---,0.00,VWS V14.01,2013-09-05 16:04:00,
2013-09-05 12:09:00,71.1,29.2,30.00,North,356,2.7,7.4,21,0.00,,---,0.00,VWS V14.01,2013-09-05 16:09:00,
2013-09-05 12:14:00,70.5,26.3,30.00,NNE,19,6.3,11.6,19,0.00,,---,0.00,VWS V14.01,2013-09-05 16:14:00,
2013-09-05 12:19:00,70.5,26.3,30.00,NW,307,3.1,8.3,19,0.00,,---,0.00,VWS V14.01,2013-09-05 16:19:00,
2013-09-05 12:24:00,70.9,26.6,30.00,NNE,16,4.9,7.8,19,0.00,,---,0.00,VWS V14.01,2013-09-05 16:24:00,
2013-09-05 12:29:00,71.6,30.8,30.00,WSW,242,0.0,7.4,22,0.00,,---,0.00,VWS V14.01,2013-09-05 16:29:00,
2013-09-05 12:34:00,72.5,30.4,30.00,NNE,31,5.4,13.0,21,0.00,,---,0.00,VWS V14.01,2013-09-05 16:34:00,
2013-09-05 12:39:00,73.4,31.1,30.00,North,356,4.9,7.8,21,0.00,,---,0.00,VWS V14.01,2013-09-05 16:39:00,
2013-09-05 12:44:00,73.8,31.4,30.00,NNE,18,0.0,11.2,21,0.00,,---,0.00,VWS V14.01,2013-09-05 16:44:00,
2013-09-05 12:49:00,74.3,30.7,30.00,SW,234,4.5,11.2,20,0.00,,---,0.00,VWS V14.01,2013-09-05 16:49:00,
2013-09-05 12:54:00,75.0,31.3,30.00,WSW,244,6.3,7.8,20,0.00,,---,0.00,VWS V14.01,2013-09-05 16:54:00,
2013-09-05 12:59:00,75.7,31.9,30.00,WNW,293,7.8,7.8,20,0.00,,---,0.00,VWS V14.01,2013-09-05 16:59:00,
2013-09-05 13:04:00,75.2,24.4,30.00,NNW,340,3.1,5.8,15,0.00,,---,0.00,VWS V14.01,2013-09-05 17:04:00,
2013-09-05 13:09:00,73.2,24.4,30.00,NNE,25,0.0,5.8,16,0.00,,---,0.00,VWS V14.01,2013-09-05 17:09:00,
2013-09-05 13:14:00,72.9,19.2,30.00,North,351,4.0,5.4,13,0.00,,---,0.00,VWS V14.01,2013-09-05 17:14:00,
2013-09-05 13:19:00,73.0,19.3,30.00,North,6,4.9,5.4,13,0.00,,---,0.00,VWS V14.01,2013-09-05 17:19:00,
2013-09-05 13:24:00,72.5,18.9,30.00,NE,39,3.6,6.3,13,0.00,,---,0.00,VWS V14.01,2013-09-05 17:24:00,
2013-09-05 13:29:00,73.6,19.8,30.00,NW,306,3.6,8.7,13,0.00,,---,0.00,VWS V14.01,2013-09-05 17:29:00,
2013-09-05 13:34:00,73.0,24.2,30.00,North,356,0.0,5.8,16,0.00,,---,0.00,VWS V14.01,2013-09-05 17:34:00,
2013-09-05 13:39:00,72.5,23.8,30.00,NE,51,0.0,5.4,16,0.00,,---,0.00,VWS V14.01,2013-09-05 17:39:00,
2013-09-05 13:44:00,73.2,19.5,30.00,ENE,64,3.1,5.8,13,0.00,,---,0.00,VWS V14.01,2013-09-05 17:44:00,
2013-09-05 13:49:00,74.3,20.3,30.00,ENE,57,4.0,9.2,13,0.00,,---,0.00,VWS V14.01,2013-09-05 17:49:00,
2013-09-05 13:54:00,73.2,15.6,30.00,East,93,4.0,5.4,11,0.00,,---,0.00,VWS V14.01,2013-09-05 17:54:00,
2013-09-05 13:59:00,73.8,19.9,30.00,East,82,0.0,4.0,13,0.00,,---,0.00,VWS V14.01,2013-09-05 17:59:00,
2013-09-05 14:04:00,73.2,15.6,30.00,NNE,31,6.3,7.8,11,0.00,,---,0.00,VWS V14.01,2013-09-05 18:04:00,
2013-09-05 14:09:00,72.9,15.3,30.00,NE,56,0.0,6.3,11,0.00,,---,0.00,VWS V14.01,2013-09-05 18:09:00,
2013-09-05 14:14:00,73.2,15.6,30.00,NNE,27,6.3,6.9,11,0.00,,---,0.00,VWS V14.01,2013-09-05 18:14:00,
2013-09-05 14:19:00,73.2,15.6,30.00,North,356,3.6,7.8,11,0.00,,---,0.00,VWS V14.01,2013-09-05 18:19:00,
2013-09-05 14:24:00,73.9,16.1,30.03,North,351,2.7,6.9,11,0.00,,---,0.00,VWS V14.01,2013-09-05 18:24:00,
2013-09-05 14:29:00,73.8,16.0,30.03,NE,41,0.0,4.9,11,0.00,,---,0.00,VWS V14.01,2013-09-05 18:29:00,
2013-09-05 14:34:00,73.6,15.9,30.03,NE,47,3.1,6.3,11,0.00,,---,0.00,VWS V14.01,2013-09-05 18:34:00,
2013-09-05 14:39:00,72.9,15.3,30.03,NE,47,0.0,6.7,11,0.00,,---,0.00,VWS V14.01,2013-09-05 18:39:00,
2013-09-05 14:44:00,72.3,14.9,30.03,NE,45,0.0,4.9,11,0.00,,---,0.00,VWS V14.01,2013-09-05 18:44:00,
2013-09-05 14:50:00,71.6,14.4,30.03,NNE,27,4.5,6.3,11,0.00,,---,0.00,VWS V14.01,2013-09-05 18:50:00,
2013-09-05 14:55:00,71.4,14.2,30.03,NNE,23,2.7,8.3,11,0.00,,---,0.00,VWS V14.01,2013-09-05 18:55:00,
2013-09-05 15:00:00,71.4,14.2,30.03,ENE,63,0.0,5.8,11,0.00,,---,0.00,VWS V14.01,2013-09-05 19:00:00,
2013-09-05 15:05:00,71.1,13.9,30.03,NE,53,2.7,4.5,11,0.00,,---,0.00,VWS V14.01,2013-09-05 19:05:00,
2013-09-05 15:10:00,71.1,13.9,30.03,NE,47,4.5,5.4,11,0.00,,---,0.00,VWS V14.01,2013-09-05 19:10:00,
2013-09-05 15:15:00,71.1,13.9,30.03,NE,37,0.0,6.7,11,0.00,,---,0.00,VWS V14.01,2013-09-05 19:15:00,
2013-09-05 15:20:00,71.8,14.5,30.03,NE,56,3.1,5.8,11,0.00,,---,0.00,VWS V14.01,2013-09-05 19:20:00,
2013-09-05 15:25:00,72.5,15.0,30.03,North,356,3.6,5.4,11,0.00,,---,0.00,VWS V14.01,2013-09-05 19:25:00,
2013-09-05 15:30:00,73.2,15.6,30.03,North,356,4.0,4.0,11,0.00,,---,0.00,VWS V14.01,2013-09-05 19:30:00,
2013-09-05 15:35:00,74.3,16.4,30.03,NNW,337,0.0,6.3,11,0.00,,---,0.00,VWS V14.01,2013-09-05 19:35:00,
2013-09-05 15:40:00,74.8,14.7,30.03,SSW,201,4.0,7.8,10,0.00,,---,0.00,VWS V14.01,2013-09-05 19:40:00,
2013-09-05 15:45:00,75.0,14.8,30.03,NNE,25,3.1,7.8,10,0.00,,---,0.00,VWS V14.01,2013-09-05 19:45:00,
2013-09-05 15:50:00,75.2,14.9,30.03,NE,46,2.7,6.3,10,0.00,,---,0.00,VWS V14.01,2013-09-05 19:50:00,
2013-09-05 15:55:00,74.8,14.7,30.03,NE,53,3.1,7.4,10,0.00,,---,0.00,VWS V14.01,2013-09-05 19:55:00,
2013-09-05 16:00:00,74.8,14.7,30.03,NNW,347,3.1,8.7,10,0.00,,---,0.00,VWS V14.01,2013-09-05 20:00:00,
2013-09-05 16:05:00,75.2,14.9,30.03,NW,326,0.0,4.0,10,0.00,,---,0.00,VWS V14.01,2013-09-05 20:05:00,
2013-09-05 16:10:00,74.8,14.7,30.03,NNW,343,2.7,5.4,10,0.00,,---,0.00,VWS V14.01,2013-09-05 20:10:00,
2013-09-05 16:15:00,74.7,14.5,30.03,North,356,0.0,5.4,10,0.00,,---,0.00,VWS V14.01,2013-09-05 20:15:00,
2013-09-05 16:20:00,75.2,14.9,30.03,North,7,4.0,4.5,10,0.00,,---,0.00,VWS V14.01,2013-09-05 20:20:00,
2013-09-05 16:25:00,75.0,14.8,30.03,NNE,16,3.1,8.7,10,0.00,,---,0.00,VWS V14.01,2013-09-05 20:25:00,
2013-09-05 16:30:00,74.8,14.7,30.03,NNW,335,4.9,8.3,10,0.00,,---,0.00,VWS V14.01,2013-09-05 20:30:00,
2013-09-05 16:35:00,75.4,15.1,30.03,North,10,4.0,9.2,10,0.00,,---,0.00,VWS V14.01,2013-09-05 20:35:00,
2013-09-05 16:40:00,75.4,15.1,30.03,NE,55,3.1,9.2,10,0.00,,---,0.00,VWS V14.01,2013-09-05 20:40:00,
2013-09-05 16:45:00,75.0,14.8,30.03,North,4,0.0,6.7,10,0.00,,---,0.00,VWS V14.01,2013-09-05 20:45:00,
2013-09-05 16:50:00,75.4,15.1,30.03,NE,41,0.0,4.9,10,0.00,,---,0.00,VWS V14.01,2013-09-05 20:50:00,
2013-09-05 16:55:00,76.3,15.8,30.03,West,269,4.9,4.9,10,0.00,,---,0.00,VWS V14.01,2013-09-05 20:55:00,
2013-09-05 17:00:00,76.5,15.9,30.03,West,276,0.0,10.1,10,0.00,,---,0.00,VWS V14.01,2013-09-05 21:00:00,
2013-09-05 17:05:00,75.9,15.5,30.03,NNW,344,0.0,6.9,10,0.00,,---,0.00,VWS V14.01,2013-09-05 21:05:00,
2013-09-05 17:10:00,75.2,14.9,30.03,NNE,33,0.0,6.3,10,0.00,,---,0.00,VWS V14.01,2013-09-05 21:10:00,
2013-09-05 17:15:00,73.4,13.6,30.03,NE,46,3.1,6.3,10,0.00,,---,0.00,VWS V14.01,2013-09-05 21:15:00,
2013-09-05 17:20:00,72.1,12.6,30.03,ENE,76,0.0,0.0,10,0.00,,---,0.00,VWS V14.01,2013-09-05 21:20:00,
2013-09-05 17:25:00,72.3,14.9,30.06,North,356,3.1,4.0,11,0.00,,---,0.00,VWS V14.01,2013-09-05 21:25:00,
2013-09-05 17:30:00,72.9,13.1,30.06,NNE,20,3.6,4.0,10,0.00,,---,0.00,VWS V14.01,2013-09-05 21:30:00,
2013-09-05 17:35:00,73.8,16.0,30.06,NNE,24,4.0,4.0,11,0.00,,---,0.00,VWS V14.01,2013-09-05 21:35:00,
2013-09-05 17:40:00,74.3,14.2,30.06,NNE,14,0.0,0.0,10,0.00,,---,0.00,VWS V14.01,2013-09-05 21:40:00,
2013-09-05 17:45:00,74.5,14.4,30.06,NNE,21,0.0,0.0,10,0.00,,---,0.00,VWS V14.01,2013-09-05 21:45:00,
2013-09-05 17:50:00,74.7,14.5,30.06,North,8,0.0,0.0,10,0.00,,---,0.00,VWS V14.01,2013-09-05 21:50:00,
2013-09-05 17:55:00,73.8,16.0,30.06,NNE,16,2.7,4.0,11,0.00,,---,0.00,VWS V14.01,2013-09-05 21:55:00,
2013-09-05 18:00:00,73.6,15.9,30.06,North,10,0.0,0.0,11,0.00,,---,0.00,VWS V14.01,2013-09-05 22:00:00,
2013-09-05 18:05:00,73.0,15.5,30.06,North,10,0.0,0.0,11,0.00,,---,0.00,VWS V14.01,2013-09-05 22:05:00,
2013-09-05 18:10:00,72.1,14.8,30.06,North,11,2.7,3.6,11,0.00,,---,0.00,VWS V14.01,2013-09-05 22:10:00,
2013-09-05 18:15:00,71.6,14.4,30.06,NNE,13,0.0,0.0,11,0.00,,---,0.00,VWS V14.01,2013-09-05 22:15:00,
2013-09-05 18:20:00,71.2,14.1,30.06,NNE,13,0.0,0.0,11,0.00,,---,0.00,VWS V14.01,2013-09-05 22:20:00,
2013-09-05 18:25:00,70.7,13.6,30.06,NNE,13,0.0,0.0,11,0.00,,---,0.00,VWS V14.01,2013-09-05 22:25:00,
2013-09-05 18:30:00,70.7,15.6,30.06,NNE,13,0.0,0.0,12,0.00,,---,0.00,VWS V14.01,2013-09-05 22:30:00,
2013-09-05 18:35:00,70.3,15.4,30.06,NNE,13,0.0,0.0,12,0.00,,---,0.00,VWS V14.01,2013-09-05 22:35:00,
2013-09-05 18:40:00,69.6,14.8,30.06,NNE,13,0.0,0.0,12,0.00,,---,0.00,VWS V14.01,2013-09-05 22:40:00,
2013-09-05 18:45:00,68.7,14.1,30.06,NE,56,0.0,0.0,12,0.00,,---,0.00,VWS V14.01,2013-09-05 22:45:00,
2013-09-05 18:50:00,68.0,13.5,30.06,NE,56,0.0,0.0,12,0.00,,---,0.00,VWS V14.01,2013-09-05 22:50:00,
2013-09-05 18:55:00,67.5,13.1,30.06,NE,53,0.0,0.0,12,0.00,,---,0.00,VWS V14.01,2013-09-05 22:55:00,
2013-09-05 19:00:00,66.7,12.5,30.06,NE,53,0.0,0.0,12,0.00,,---,0.00,VWS V14.01,2013-09-05 23:00:00,
2013-09-05 19:05:00,66.0,12.0,30.06,NE,53,0.0,0.0,12,0.00,,---,0.00,VWS V14.01,2013-09-05 23:05:00,
2013-09-05 19:10:00,65.5,11.6,30.06,NE,53,0.0,0.0,12,0.00,,---,0.00,VWS V14.01,2013-09-05 23:10:00,
2013-09-05 19:15:00,64.6,15.9,30.06,NE,53,0.0,0.0,15,0.00,,---,0.00,VWS V14.01,2013-09-05 23:15:00,
2013-09-05 19:20:00,63.9,15.3,30.06,NE,53,0.0,0.0,15,0.00,,---,0.00,VWS V14.01,2013-09-05 23:20:00,
2013-09-05 19:25:00,63.1,16.2,30.09,NE,53,0.0,0.0,16,0.00,,---,0.00,VWS V14.01,2013-09-05 23:25:00,
2013-09-05 19:30:00,62.8,15.9,30.09,NE,53,0.0,0.0,16,0.00,,---,0.00,VWS V14.01,2013-09-05 23:30:00,
2013-09-05 19:35:00,62.2,21.9,30.09,NE,53,0.0,0.0,21,0.00,,---,0.00,VWS V14.01,2013-09-05 23:35:00,
2013-09-05 19:40:00,61.9,24.7,30.09,NE,53,0.0,0.0,24,0.00,,---,0.00,VWS V14.01,2013-09-05 23:40:00,
2013-09-05 19:45:00,61.3,25.2,30.09,NE,53,0.0,0.0,25,0.00,,---,0.00,VWS V14.01,2013-09-05 23:45:00,
2013-09-05 19:50:00,61.2,26.9,30.09,NE,53,0.0,0.0,27,0.00,,---,0.00,VWS V14.01,2013-09-05 23:50:00,
2013-09-05 19:55:00,60.8,29.2,30.09,NE,53,0.0,0.0,30,0.00,,---,0.00,VWS V14.01,2013-09-05 23:55:00,
2013-09-05 20:00:00,60.4,29.7,30.09,NE,53,0.0,0.0,31,0.00,,---,0.00,VWS V14.01,2013-09-06 00:00:00,
2013-09-05 20:05:00,60.3,31.8,30.09,NE,53,0.0,0.0,34,0.00,,---,0.00,VWS V14.01,2013-09-06 00:05:00,
2013-09-05 20:10:00,59.9,31.5,30.09,NE,53,0.0,0.0,34,0.00,,---,0.00,VWS V14.01,2013-09-06 00:10:00,
2013-09-05 20:15:00,59.7,32.7,30.09,NE,53,0.0,0.0,36,0.00,,---,0.00,VWS V14.01,2013-09-06 00:15:00,
2013-09-05 20:20:00,59.4,32.4,30.09,NE,53,0.0,0.0,36,0.00,,---,0.00,VWS V14.01,2013-09-06 00:20:00,
2013-09-05 20:25:00,59.0,31.4,30.09,NE,53,0.0,0.0,35,0.00,,---,0.00,VWS V14.01,2013-09-06 00:25:00,
2013-09-05 20:30:00,58.8,32.0,30.09,NE,53,0.0,0.0,36,0.00,,---,0.00,VWS V14.01,2013-09-06 00:30:00,
2013-09-05 20:35:00,58.5,32.3,30.09,NE,53,0.0,0.0,37,0.00,,---,0.00,VWS V14.01,2013-09-06 00:35:00,
2013-09-05 20:40:00,58.5,33.0,30.12,NE,53,0.0,0.0,38,0.00,,---,0.00,VWS V14.01,2013-09-06 00:40:00,
2013-09-05 20:45:00,58.1,32.7,30.12,NE,53,0.0,0.0,38,0.00,,---,0.00,VWS V14.01,2013-09-06 00:45:00,
2013-09-05 20:50:00,57.9,32.5,30.12,NE,53,0.0,0.0,38,0.00,,---,0.00,VWS V14.01,2013-09-06 00:50:00,
2013-09-05 20:55:00,57.7,33.0,30.12,NE,53,0.0,0.0,39,0.00,,---,0.00,VWS V14.01,2013-09-06 00:55:00,
2013-09-05 21:00:00,57.4,33.3,30.12,NE,53,0.0,0.0,40,0.00,,---,0.00,VWS V14.01,2013-09-06 01:00:00,
2013-09-05 21:05:00,57.0,32.3,30.12,NE,53,0.0,0.0,39,0.00,,---,0.00,VWS V14.01,2013-09-06 01:05:00,
2013-09-05 21:10:00,56.8,32.8,30.12,NE,53,0.0,0.0,40,0.00,,---,0.00,VWS V14.01,2013-09-06 01:10:00,
2013-09-05 21:15:00,56.7,33.2,30.12,NE,53,0.0,0.0,41,0.00,,---,0.00,VWS V14.01,2013-09-06 01:15:00,
2013-09-05 21:20:00,56.7,33.2,30.12,NE,53,0.0,0.0,41,0.00,,---,0.00,VWS V14.01,2013-09-06 01:20:00,
2013-09-05 21:25:00,56.5,33.1,30.12,NE,53,0.0,0.0,41,0.00,,---,0.00,VWS V14.01,2013-09-06 01:25:00,
2013-09-05 21:30:00,56.3,32.9,30.12,NE,53,0.0,0.0,41,0.00,,---,0.00,VWS V14.01,2013-09-06 01:30:00,
2013-09-05 21:35:00,56.3,33.5,30.12,NE,53,0.0,0.0,42,0.00,,---,0.00,VWS V14.01,2013-09-06 01:35:00,
2013-09-05 21:40:00,56.1,35.1,30.12,NE,53,0.0,0.0,45,0.00,,---,0.00,VWS V14.01,2013-09-06 01:40:00,
2013-09-05 21:45:00,55.9,34.9,30.12,NE,53,0.0,0.0,45,0.00,,---,0.00,VWS V14.01,2013-09-06 01:45:00,
2013-09-05 21:50:00,55.8,34.8,30.12,NE,53,0.0,0.0,45,0.00,,---,0.00,VWS V14.01,2013-09-06 01:50:00,
2013-09-05 21:56:00,55.6,34.6,30.12,NE,53,0.0,0.0,45,0.00,,---,0.00,VWS V14.01,2013-09-06 01:56:00,
2013-09-05 22:01:00,55.4,34.4,30.12,NE,53,0.0,0.0,45,0.00,,---,0.00,VWS V14.01,2013-09-06 02:01:00,
2013-09-05 22:06:00,55.0,34.1,30.15,NE,53,0.0,0.0,45,0.00,,---,0.00,VWS V14.01,2013-09-06 02:06:00,
2013-09-05 22:11:00,54.9,33.9,30.15,NE,53,0.0,0.0,45,0.00,,---,0.00,VWS V14.01,2013-09-06 02:11:00,
2013-09-05 22:16:00,54.7,33.8,30.15,NE,53,0.0,0.0,45,0.00,,---,0.00,VWS V14.01,2013-09-06 02:16:00,
2013-09-05 22:21:00,54.5,33.6,30.15,NE,53,0.0,0.0,45,0.00,,---,0.00,VWS V14.01,2013-09-06 02:21:00,
2013-09-05 22:26:00,54.5,34.2,30.15,NE,53,0.0,0.0,46,0.00,,---,0.00,VWS V14.01,2013-09-06 02:26:00,
2013-09-05 22:31:00,54.5,34.7,30.15,NE,53,0.0,0.0,47,0.00,,---,0.00,VWS V14.01,2013-09-06 02:31:00,
2013-09-05 22:36:00,54.1,34.4,30.15,NE,53,0.0,0.0,47,0.00,,---,0.00,VWS V14.01,2013-09-06 02:36:00,
2013-09-05 22:41:00,54.0,34.2,30.15,NE,53,0.0,0.0,47,0.00,,---,0.00,VWS V14.01,2013-09-06 02:41:00,
2013-09-05 22:46:00,53.8,34.0,30.15,NE,53,0.0,0.0,47,0.00,,---,0.00,VWS V14.01,2013-09-06 02:46:00,
2013-09-05 22:51:00,53.6,34.4,30.15,NE,53,0.0,0.0,48,0.00,,---,0.00,VWS V14.01,2013-09-06 02:51:00,
2013-09-05 22:56:00,53.6,34.9,30.15,NE,53,0.0,0.0,49,0.00,,---,0.00,VWS V14.01,2013-09-06 02:56:00,
2013-09-05 23:01:00,53.4,34.8,30.15,NE,53,0.0,0.0,49,0.00,,---,0.00,VWS V14.01,2013-09-06 03:01:00,
2013-09-05 23:06:00,53.2,34.6,30.15,NE,53,0.0,0.0,49,0.00,,---,0.00,VWS V14.01,2013-09-06 03:06:00,
2013-09-05 23:11:00,53.2,35.1,30.15,NE,53,0.0,0.0,50,0.00,,---,0.00,VWS V14.01,2013-09-06 03:11:00,
2013-09-05 23:16:00,53.1,34.9,30.15,NE,53,0.0,0.0,50,0.00,,---,0.00,VWS V14.01,2013-09-06 03:16:00,
2013-09-05 23:21:00,53.1,35.4,30.15,NE,53,0.0,0.0,51,0.00,,---,0.00,VWS V14.01,2013-09-06 03:21:00,
2013-09-05 23:26:00,52.9,35.3,30.15,NE,53,0.0,0.0,51,0.00,,---,0.00,VWS V14.01,2013-09-06 03:26:00,
2013-09-05 23:31:00,52.9,35.3,30.15,NE,53,0.0,0.0,51,0.00,,---,0.00,VWS V14.01,2013-09-06 03:31:00,
2013-09-05 23:36:00,52.7,35.6,30.15,NE,53,0.0,0.0,52,0.00,,---,0.00,VWS V14.01,2013-09-06 03:36:00,
2013-09-05 23:41:00,52.7,36.1,30.15,NE,53,0.0,2.7,53,0.00,,---,0.00,VWS V14.01,2013-09-06 03:41:00,
2013-09-05 23:46:00,52.5,36.8,30.15,NE,53,0.0,0.0,55,0.00,,---,0.00,VWS V14.01,2013-09-06 03:46:00,
2013-09-05 23:51:00,52.7,37.0,30.15,NE,53,0.0,0.0,55,0.00,,---,0.00,VWS V14.01,2013-09-06 03:51:00,
2013-09-05 23:56:00,52.7,37.0,30.15,NE,53,0.0,0.0,55,0.00,,---,0.00,VWS V14.01,2013-09-06 03:56:00,